Location: Newark
(27.9675°N, 86.8869°E)
Time: 03:35:31
(UTC+00:00)

A-11 Canister half - Pass Details

Date: 23 October 2019
Orbit: 1527 x 1682 km, 47.3° (Epoch: 18 November)

Event Time Altitude Azimuth Distance (km) Brightness Sun altitude
Exits shadow 20:54:21 21° 151° (SSE) 2,956 10.5 -45.4°
Drops below altitude 10° 20:57:02 10° 147° (SSE) 3,779 11.2 -44.8°
Sets 21:00:11 0° 144° (SE) 4,783 11.8 -44.1°
